Gstar 2

operational
NORAD ID: 16649 Int'l Des: 1986-026 Owner: GTE Country: US
HEOCIRCULAR

关于 Gstar 2

正在加载描述...

实时位置

正在加载3D地球...

即将过境

高度历史

Altitude vs Time

uPlot chart will show altitude changes over time

两行轨道根数

1 16649U 86026A 26059.02167960 -.00000091 00000-0 00000+0 0 9991
2 16649 14.2559 346.6730 0003448 12.6884 170.3094 0.99801836115556
Epoch: Feb 28, 2026 • Age: 103 hours

当前状态

高度 35922.1 km
速度 3.07 km/s
星下点 -14.07°S, 2.95°W
发射日期 Mar 28, 1986
运行时间 39.9 years
类型 other

技术详情

分类 Payload
质量 692.00 kg
干质量 320.00 kg
总质量 1235.00 kg
长度 2.80 m
直径 1.00 m
跨度 14.90 m
形状 Box + 2 Pan
制造商 GEEW
平台类型 AS3000
阶段状态 In Orbit
所有者/国家 GTE/US

大型星座

Loading constellations...